TimeEDT,TemperatureF,Dew PointF,Humidity,Sea Level PressureIn,VisibilityMPH,Wind Direction,Wind SpeedMPH,Gust SpeedMPH,PrecipitationIn,Events,Conditions,WindDirDegrees,DateUTC
12:15 AM,71.6,69.8,94,30.10,10.0,ENE,3.5,-,N/A,,Clear,70,2013-08-21 04:15:00
12:35 AM,71.6,69.8,94,30.10,10.0,East,3.5,-,N/A,,Clear,90,2013-08-21 04:35:00
12:55 AM,71.6,69.8,94,30.10,10.0,East,3.5,-,N/A,,Clear,100,2013-08-21 04:55:00
1:15 AM,71.6,69.8,94,30.10,10.0,East,4.6,-,N/A,,Clear,90,2013-08-21 05:15:00
1:35 AM,71.6,69.8,94,30.10,10.0,Calm,Calm,-,N/A,,Clear,0,2013-08-21 05:35:00
1:55 AM,71.6,69.8,94,30.10,10.0,East,3.5,-,N/A,,Clear,100,2013-08-21 05:55:00
2:15 AM,71.6,69.8,94,30.09,10.0,East,3.5,-,N/A,,Clear,90,2013-08-21 06:15:00
2:35 AM,71.6,69.8,94,30.09,10.0,Calm,Calm,-,N/A,,Clear,0,2013-08-21 06:35:00
2:55 AM,71.6,69.8,94,30.09,10.0,Calm,Calm,-,N/A,,Clear,0,2013-08-21 06:55:00
3:15 AM,71.6,71.6,100,30.09,10.0,Calm,Calm,-,N/A,,Clear,0,2013-08-21 07:15:00
3:35 AM,71.6,71.6,100,30.08,10.0,Calm,Calm,-,N/A,,Clear,0,2013-08-21 07:35:00
3:55 AM,71.6,71.6,100,30.07,10.0,Calm,Calm,-,N/A,,Clear,0,2013-08-21 07:55:00
4:15 AM,71.6,71.6,100,30.07,10.0,Calm,Calm,-,N/A,,Clear,0,2013-08-21 08:15:00
4:35 AM,71.6,71.6,100,30.07,10.0,Calm,Calm,-,N/A,,Clear,0,2013-08-21 08:35:00
4:55 AM,71.6,71.6,100,30.08,10.0,Calm,Calm,-,N/A,,Clear,0,2013-08-21 08:55:00
5:15 AM,71.6,71.6,100,30.08,10.0,Calm,Calm,-,N/A,,Clear,0,2013-08-21 09:15:00
5:35 AM,71.6,71.6,100,30.08,10.0,Calm,Calm,-,N/A,,Clear,0,2013-08-21 09:35:00
5:55 AM,71.6,71.6,100,30.08,10.0,Calm,Calm,-,N/A,,Clear,0,2013-08-21 09:55:00
6:15 AM,71.6,71.6,100,30.09,10.0,Calm,Calm,-,N/A,,Clear,0,2013-08-21 10:15:00
6:35 AM,71.6,71.6,100,30.09,10.0,Calm,Calm,-,N/A,,Clear,0,2013-08-21 10:35:00
6:55 AM,71.6,71.6,100,30.10,10.0,Calm,Calm,-,N/A,,Clear,0,2013-08-21 10:55:00
7:15 AM,71.6,71.6,100,30.11,10.0,Calm,Calm,-,N/A,,Clear,0,2013-08-21 11:15:00
7:35 AM,71.6,71.6,100,30.11,10.0,ENE,3.5,-,N/A,,Clear,70,2013-08-21 11:35:00
7:55 AM,73.4,71.6,94,30.11,10.0,ENE,3.5,-,N/A,,Clear,60,2013-08-21 11:55:00
8:15 AM,75.2,73.4,94,30.11,10.0,ENE,3.5,-,N/A,,Clear,60,2013-08-21 12:15:00
8:35 AM,77.0,73.4,89,30.12,10.0,NE,4.6,-,N/A,,Clear,50,2013-08-21 12:35:00
8:55 AM,78.8,75.2,89,30.11,10.0,ENE,5.8,-,N/A,,Clear,70,2013-08-21 12:55:00
9:15 AM,80.6,75.2,84,30.12,10.0,NE,5.8,-,N/A,,Clear,50,2013-08-21 13:15:00
9:35 AM,80.6,75.2,84,30.12,10.0,ENE,8.1,-,N/A,,Scattered Clouds,70,2013-08-21 13:35:00
9:55 AM,82.4,75.2,79,30.13,10.0,East,8.1,-,N/A,,Scattered Clouds,100,2013-08-21 13:55:00
10:15 AM,84.2,73.4,70,30.13,10.0,East,8.1,-,N/A,,Clear,90,2013-08-21 14:15:00
10:35 AM,86.0,73.4,66,30.13,10.0,East,9.2,-,N/A,,Clear,100,2013-08-21 14:35:00
10:55 AM,86.0,73.4,66,30.13,10.0,East,6.9,-,N/A,,Scattered Clouds,90,2013-08-21 14:55:00
11:15 AM,86.0,73.4,66,30.13,10.0,East,8.1,-,N/A,,Scattered Clouds,90,2013-08-21 15:15:00
11:35 AM,87.8,73.4,62,30.13,10.0,ENE,9.2,-,N/A,,Scattered Clouds,70,2013-08-21 15:35:00
11:55 AM,87.8,71.6,58,30.12,10.0,SE,4.6,-,N/A,,Scattered Clouds,140,2013-08-21 15:55:00
12:15 PM,87.8,71.6,58,30.12,10.0,East,6.9,-,N/A,Thunderstorm,Scattered Clouds,80,2013-08-21 16:15:00
12:35 PM,87.8,71.6,58,30.11,10.0,East,8.1,-,N/A,,Mostly Cloudy,80,2013-08-21 16:35:00
12:55 PM,89.6,73.4,59,30.11,10.0,East,8.1,-,N/A,,Scattered Clouds,90,2013-08-21 16:55:00
1:15 PM,89.6,71.6,55,30.10,10.0,ENE,5.8,-,N/A,Thunderstorm,Scattered Clouds,70,2013-08-21 17:15:00
1:35 PM,91.4,71.6,52,30.09,10.0,East,5.8,-,N/A,,Scattered Clouds,100,2013-08-21 17:35:00
1:55 PM,89.6,71.6,55,30.08,10.0,ENE,5.8,-,N/A,,Mostly Cloudy,70,2013-08-21 17:55:00
2:15 PM,89.6,71.6,55,30.08,10.0,East,9.2,-,N/A,Thunderstorm,Mostly Cloudy,80,2013-08-21 18:15:00
2:35 PM,89.6,71.6,55,30.08,10.0,East,8.1,-,N/A,,Overcast,90,2013-08-21 18:35:00
2:55 PM,91.4,71.6,52,30.07,10.0,East,8.1,-,N/A,Thunderstorm,Thunderstorm,90,2013-08-21 18:55:00
3:15 PM,86.0,75.2,70,30.07,7.0,North,10.4,17.3,N/A,Rain-Thunderstorm,Thunderstorms and Rain,360,2013-08-21 19:15:00
3:35 PM,78.8,69.8,74,30.09,10.0,East,10.4,16.1,N/A,Thunderstorm,Thunderstorm,80,2013-08-21 19:35:00
3:55 PM,73.4,69.8,88,30.10,2.5,North,10.4,16.1,0.19,Rain-Thunderstorm,Light Thunderstorms and Rain,360,2013-08-21 19:55:00
4:15 PM,73.4,69.8,88,30.08,7.0,NNE,8.1,-,0.03,Rain-Thunderstorm,Thunderstorms and Rain,20,2013-08-21 20:15:00
4:35 PM,73.4,69.8,88,30.11,10.0,Calm,Calm,-,0.03,Rain-Thunderstorm,Light Thunderstorms and Rain,0,2013-08-21 20:35:00
4:55 PM,73.4,71.6,94,30.11,10.0,South,3.5,-,0.04,Rain-Thunderstorm,Light Thunderstorms and Rain,190,2013-08-21 20:55:00
5:15 PM,73.4,71.6,94,30.10,7.0,Calm,Calm,-,0.02,Rain-Thunderstorm,Light Thunderstorms and Rain,0,2013-08-21 21:15:00
5:35 PM,73.4,71.6,94,30.10,5.0,Calm,Calm,-,0.05,Rain-Thunderstorm,Thunderstorms and Rain,0,2013-08-21 21:35:00
5:55 PM,73.4,71.6,94,30.09,5.0,Calm,Calm,-,0.11,Rain,Light Rain,0,2013-08-21 21:55:00
6:15 PM,73.4,71.6,94,30.09,10.0,Calm,Calm,-,0.01,Rain,Light Rain,0,2013-08-21 22:15:00
6:35 PM,73.4,71.6,94,30.08,10.0,Calm,Calm,-,0.03,Rain,Light Rain,0,2013-08-21 22:35:00
6:55 PM,73.4,71.6,94,30.08,7.0,Calm,Calm,-,0.06,Rain,Light Rain,0,2013-08-21 22:55:00
7:15 PM,73.4,73.4,100,30.09,10.0,Calm,Calm,-,0.01,Rain,Rain,0,2013-08-21 23:15:00
7:35 PM,73.4,73.4,100,30.09,10.0,Calm,Calm,-,0.02,Rain,Light Rain,0,2013-08-21 23:35:00
7:55 PM,73.4,73.4,100,30.08,10.0,East,3.5,-,0.03,Rain,Light Rain,80,2013-08-21 23:55:00
8:15 PM,73.4,73.4,100,30.06,10.0,ENE,5.8,-,N/A,,Scattered Clouds,60,2013-08-22 00:15:00
8:35 PM,73.4,71.6,94,30.06,10.0,ENE,4.6,-,N/A,,Scattered Clouds,70,2013-08-22 00:35:00
8:55 PM,75.2,73.4,94,30.07,10.0,East,4.6,-,N/A,,Scattered Clouds,90,2013-08-22 00:55:00
9:15 PM,75.2,73.4,94,30.08,10.0,East,3.5,-,N/A,,Clear,90,2013-08-22 01:15:00
9:35 PM,75.2,73.4,94,30.08,10.0,East,3.5,-,N/A,,Clear,100,2013-08-22 01:35:00
9:55 PM,75.2,73.4,94,30.08,10.0,East,3.5,-,N/A,,Clear,80,2013-08-22 01:55:00
10:15 PM,75.2,73.4,94,30.08,10.0,East,3.5,-,N/A,,Clear,100,2013-08-22 02:15:00
10:35 PM,77.0,73.4,89,30.09,10.0,Calm,Calm,-,N/A,,Scattered Clouds,0,2013-08-22 02:35:00
10:55 PM,75.2,73.4,94,30.09,10.0,Calm,Calm,-,N/A,,Scattered Clouds,0,2013-08-22 02:55:00
11:15 PM,75.2,73.4,94,30.10,10.0,Calm,Calm,-,N/A,,Clear,0,2013-08-22 03:15:00
11:35 PM,75.2,73.4,94,30.10,10.0,Calm,Calm,-,N/A,,Clear,0,2013-08-22 03:35:00
11:55 PM,75.2,73.4,94,30.10,10.0,Calm,Calm,-,N/A,,Clear,0,2013-08-22 03:55:00